Starlink 33832

operational
NORAD ID: 63637 Int'l Des: 2025-083 Owner: SPXS Country: US Constellation: starlink
LEOCIRCULAR

About Starlink 33832

Description loading...

Live Position

Loading 3D Globe...

Upcoming Passes

Altitude History

Altitude vs Time

uPlot chart will show altitude changes over time

Two-Line Element Set

1 63637U 25083D 25350.66937762 .00018270 00000-0 67149-3 0 9992
2 63637 43.0028 113.7557 0001880 280.7510 79.3130 15.27594285 37374
Epoch: Dec 16, 2025 • Age: 20 hours

Current Status

Altitude 487.9 km
Velocity 7.62 km/s
Sub-Earth Point -24.67°S, 168.75°E
Launch Date Apr 25, 2025
Age 0.6 years
Type internet

Technical Details

Classification Payload
Mass 575.00 kg
Dry Mass 530.00 kg
Total Mass 575.00 kg
Length 0.30 m
Diameter 4.10 m
Span 29.00 m
Shape Box + pan
Manufacturer SPXS
Bus Type Starlink V2MO
Phase Status In Orbit
Owner/State SPXS/US

Large Constellations

Loading constellations...